| time (UTC) | temp F | wind direction | speed knots | gust knots | rain 1hr in | rain 24hr in | rain mn in | humidity % | barometer mb |
| 20260831231415 | 93 | 58 | 0.0 | 0.9 | 0.00 | 0.00 | 0.00 | 52 | 1016.3 |
| 20260831230910 | 93 | 100 | 1.7 | 1.7 | 0.00 | 0.00 | 0.00 | 51 | 1016.5 |
| 20260831230405 | 94 | 72 | 0.0 | 0.9 | 0.00 | 0.00 | 0.00 | 52 | 1016.5 |
| 20260831225905 | 95 | 30 | 0.9 | 0.9 | 0.00 | 0.00 | 0.00 | 49 | 1016.4 |
| 20260831225401 | 94 | 55 | 0.0 | 0.0 | 0.00 | 0.00 | 0.00 | 50 | 1016.6 |
| 20260831224855 | 94 | 59 | 0.0 | 0.0 | 0.00 | 0.00 | 0.00 | 50 | 1016.6 |
| 20260831224350 | 95 | 56 | 0.0 | 0.0 | 0.00 | 0.00 | 0.00 | 49 | 1016.5 |
| 20260831223850 | 96 | 66 | 0.0 | 0.9 | 0.00 | 0.00 | 0.00 | 49 | 1016.5 |
| 20260831223346 | 96 | 341 | 1.7 | 1.7 | 0.00 | 0.00 | 0.00 | 46 | 1016.7 |
| 20260831222843 | 96 | 83 | 0.9 | 1.7 | 0.00 | 0.00 | 0.00 | 44 | 1016.8 |
| 20260831222338 | 97 | 294 | 1.7 | 2.6 | 0.00 | 0.00 | 0.00 | 44 | 1016.7 |
| 20260831221833 | 98 | 54 | 0.0 | 0.0 | 0.00 | 0.00 | 0.00 | 45 | 1016.7 |
| 20260831221329 | 98 | 62 | 0.0 | 0.0 | 0.00 | 0.00 | 0.00 | 46 | 1016.9 |
| 20260831220823 | 98 | 331 | 0.9 | 1.7 | 0.00 | 0.00 | 0.00 | 43 | 1016.7 |
| 20260831220318 | 98 | 47 | 0.9 | 0.9 | 0.00 | 0.00 | 0.00 | 42 | 1016.7 |
| 20260831215814 | 99 | 22 | 0.9 | 0.9 | 0.00 | 0.00 | 0.00 | 42 | 1016.7 |
| 20260831215310 | 98 | 227 | 0.0 | 0.9 | 0.00 | 0.00 | 0.00 | 44 | 1016.7 |
| 20260831214806 | 98 | 39 | 0.9 | 0.9 | 0.00 | 0.00 | 0.00 | 41 | 1016.8 |
| 20260831214303 | 98 | 37 | 0.0 | 0.9 | 0.00 | 0.00 | 0.00 | 42 | 1016.8 |
| 20260831213758 | 98 | 62 | 0.0 | 0.0 | 0.00 | 0.00 | 0.00 | 41 | 1017.0 |
| 20260831213255 | 98 | 337 | 0.0 | 0.9 | 0.00 | 0.00 | 0.00 | 42 | 1017.0 |
| 20260831212749 | 98 | 65 | 0.0 | 0.0 | 0.00 | 0.00 | 0.00 | 45 | 1016.8 |
| 20260831212247 | 98 | 69 | 0.0 | 0.9 | 0.00 | 0.00 | 0.00 | 43 | 1017.0 |
| 20260831211744 | 98 | 231 | 0.9 | 1.7 | 0.00 | 0.00 | 0.00 | 42 | 1016.9 |
| 20260831211241 | 98 | 30 | 0.9 | 1.7 | 0.00 | 0.00 | 0.00 | 43 | 1017.0 |
| 20260831210741 | 98 | 62 | 0.9 | 1.7 | 0.00 | 0.00 | 0.00 | 42 | 1017.2 |
| 20260831210237 | 98 | 60 | 0.0 | 0.0 | 0.00 | 0.00 | 0.00 | 45 | 1017.1 |
| 20260831205736 | 98 | 41 | 0.0 | 0.0 | 0.00 | 0.00 | 0.00 | 41 | 1017.1 |
| 20260831205232 | 98 | 50 | 0.0 | 0.0 | 0.00 | 0.00 | 0.00 | 42 | 1017.0 |
| 20260831204726 | 98 | 68 | 0.0 | 0.9 | 0.00 | 0.00 | 0.00 | 43 | 1017.1 |
| 20260831204226 | 98 | 54 | 0.0 | 0.9 | 0.00 | 0.00 | 0.00 | 45 | 1017.0 |
| 20260831203720 | 99 | 46 | 0.9 | 1.7 | 0.00 | 0.00 | 0.00 | 44 | 1016.9 |
| 20260831203220 | 99 | 64 | 0.9 | 0.9 | 0.00 | 0.00 | 0.00 | 49 | 1017.2 |
| 20260831202718 | 97 | 70 | 0.9 | 0.9 | 0.00 | 0.00 | 0.00 | 46 | 1017.3 |
| 20260831202213 | 96 | 25 | 0.9 | 0.9 | 0.00 | 0.00 | 0.00 | 46 | 1017.4 |
| 20260831201713 | 95 | 66 | 0.9 | 0.9 | 0.00 | 0.00 | 0.00 | 47 | 1017.5 |
| 20260831201207 | 94 | 93 | 0.9 | 0.9 | 0.00 | 0.00 | 0.00 | 50 | 1017.5 |
| 20260831200702 | 93 | 356 | 1.7 | 2.6 | 0.00 | 0.00 | 0.00 | 48 | 1017.5 |
| 20260831200156 | 94 | 47 | 0.9 | 0.9 | 0.00 | 0.00 | 0.00 | 47 | 1017.6 |
| 20260831195652 | 95 | 68 | 0.9 | 0.9 | 0.00 | 0.00 | 0.00 | 47 | 1017.6 |
| 20260831195147 | 95 | 355 | 1.7 | 1.7 | 0.00 | 0.00 | 0.00 | 48 | 1017.7 |
| 20260831194642 | 96 | 64 | 0.0 | 0.9 | 0.00 | 0.00 | 0.00 | 47 | 1017.7 |
| 20260831194137 | 97 | 65 | 0.0 | 0.0 | 0.00 | 0.00 | 0.00 | 46 | 1017.7 |
| 20260831193631 | 97 | 54 | 0.0 | 0.0 | 0.00 | 0.00 | 0.00 | 46 | 1017.8 |
| 20260831193127 | 96 | 103 | 0.9 | 1.7 | 0.00 | 0.00 | 0.00 | 51 | 1017.7 |
| 20260831192622 | 96 | 43 | 0.9 | 1.7 | 0.00 | 0.00 | 0.00 | 53 | 1018.0 |
| 20260831192117 | 96 | 354 | 3.5 | 5.2 | 0.00 | 0.00 | 0.00 | 47 | 1018.0 |
| 20260831191608 | 96 | 111 | 0.9 | 0.9 | 0.00 | 0.00 | 0.00 | 46 | 1018.0 |
| 20260831191104 | 96 | 21 | 2.6 | 3.5 | 0.00 | 0.00 | 0.00 | 46 | 1017.9 |
| 20260831190559 | 96 | 62 | 0.9 | 0.9 | 0.00 | 0.00 | 0.00 | 50 | 1018.2 |
| 20260831190057 | 96 | 63 | 1.7 | 2.6 | 0.00 | 0.00 | 0.00 | 48 | 1018.1 |
| 20260831185553 | 96 | 10 | 0.9 | 1.7 | 0.00 | 0.00 | 0.00 | 47 | 1018.3 |
| 20260831185049 | 95 | 21 | 0.9 | 0.9 | 0.00 | 0.00 | 0.00 | 46 | 1018.3 |
| 20260831184548 | 95 | 78 | 0.9 | 0.9 | 0.00 | 0.00 | 0.00 | 47 | 1018.4 |
| 20260831184044 | 95 | 74 | 1.7 | 1.7 | 0.00 | 0.00 | 0.00 | 48 | 1018.4 |
| 20260831183543 | 95 | 223 | 2.6 | 2.6 | 0.00 | 0.00 | 0.00 | 52 | 1018.7 |
| 20260831183042 | 94 | 56 | 0.0 | 0.0 | 0.00 | 0.00 | 0.00 | 49 | 1018.5 |
| 20260831182536 | 94 | 69 | 0.9 | 0.9 | 0.00 | 0.00 | 0.00 | 50 | 1018.7 |
| 20260831182032 | 95 | 226 | 4.3 | 5.2 | 0.00 | 0.00 | 0.00 | 49 | 1018.7 |
| 20260831181532 | 95 | 185 | 2.6 | 2.6 | 0.00 | 0.00 | 0.00 | 49 | 1018.7 |
| 20260831181032 | 94 | 89 | 0.9 | 0.9 | 0.00 | 0.00 | 0.00 | 49 | 1018.7 |
| 20260831180527 | 94 | 290 | 1.7 | 2.6 | 0.00 | 0.00 | 0.00 | 47 | 1018.8 |
| 20260831180022 | 94 | 68 | 0.9 | 0.9 | 0.00 | 0.00 | 0.00 | 50 | 1018.8 |
| 20260831175517 | 94 | 259 | 1.7 | 1.7 | 0.00 | 0.00 | 0.00 | 50 | 1018.9 |
| 20260831175014 | 94 | 45 | 0.0 | 0.0 | 0.00 | 0.00 | 0.00 | 49 | 1019.1 |
| 20260831174509 | 94 | 43 | 1.7 | 3.5 | 0.00 | 0.00 | 0.00 | 48 | 1019.2 |
| 20260831174008 | 94 | 240 | 2.6 | 2.6 | 0.00 | 0.00 | 0.00 | 49 | 1019.2 |
| 20260831173506 | 94 | 102 | 0.0 | 0.9 | 0.00 | 0.00 | 0.00 | 51 | 1019.2 |
| 20260831173003 | 93 | 64 | 0.0 | 0.0 | 0.00 | 0.00 | 0.00 | 55 | 1019.1 |
| 20260831172458 | 93 | 261 | 1.7 | 2.6 | 0.00 | 0.00 | 0.00 | 53 | 1019.0 |
| 20260831171953 | 93 | 345 | 0.9 | 1.7 | 0.00 | 0.00 | 0.00 | 53 | 1019.3 |
| 20260831171448 | 93 | 99 | 0.9 | 0.9 | 0.00 | 0.00 | 0.00 | 52 | 1019.1 |
| 20260831170946 | 92 | 289 | 2.6 | 2.6 | 0.00 | 0.00 | 0.00 | 51 | 1019.3 |
| 20260831170442 | 93 | 299 | 3.5 | 3.5 | 0.00 | 0.00 | 0.00 | 50 | 1019.4 |
| 20260831165938 | 93 | 26 | 1.7 | 2.6 | 0.00 | 0.00 | 0.00 | 52 | 1019.3 |
| 20260831165434 | 93 | 59 | 0.0 | 0.0 | 0.00 | 0.00 | 0.00 | 56 | 1019.5 |
| 20260831164931 | 93 | 265 | 2.6 | 2.6 | 0.00 | 0.00 | 0.00 | 56 | 1019.4 |
| 20260831164427 | 92 | 83 | 0.9 | 1.7 | 0.00 | 0.00 | 0.00 | 54 | 1019.7 |
| 20260831163927 | 92 | 0 | 0.9 | 0.9 | 0.00 | 0.00 | 0.00 | 54 | 1019.8 |
| 20260831163422 | 92 | 82 | 0.9 | 1.7 | 0.00 | 0.00 | 0.00 | 55 | 1019.8 |
| 20260831162921 | 91 | 282 | 3.5 | 5.2 | 0.00 | 0.00 | 0.00 | 56 | 1019.9 |
| 20260831162416 | 91 | 172 | 3.5 | 6.1 | 0.00 | 0.00 | 0.00 | 56 | 1019.6 |
| 20260831161915 | 91 | 197 | 3.5 | 3.5 | 0.00 | 0.00 | 0.00 | 55 | 1019.8 |
| 20260831161412 | 91 | 350 | 4.3 | 6.1 | 0.00 | 0.00 | 0.00 | 58 | 1019.8 |
| 20260831160907 | 91 | 14 | 2.6 | 2.6 | 0.00 | 0.00 | 0.00 | 57 | 1019.8 |
| 20260831160401 | 91 | 195 | 1.7 | 2.6 | 0.00 | 0.00 | 0.00 | 58 | 1019.9 |
| 20260831155857 | 90 | 203 | 2.6 | 2.6 | 0.00 | 0.00 | 0.00 | 58 | 1019.8 |
| 20260831155356 | 90 | 239 | 1.7 | 3.5 | 0.00 | 0.00 | 0.00 | 61 | 1019.8 |
| 20260831154852 | 89 | 319 | 2.6 | 3.5 | 0.00 | 0.00 | 0.00 | 60 | 1019.7 |
| 20260831154348 | 90 | 262 | 3.5 | 3.5 | 0.00 | 0.00 | 0.00 | 58 | 1019.8 |
| 20260831153846 | 90 | 30 | 2.6 | 5.2 | 0.00 | 0.00 | 0.00 | 59 | 1019.8 |
| 20260831153343 | 89 | 288 | 1.7 | 2.6 | 0.00 | 0.00 | 0.00 | 61 | 1019.8 |
| 20260831152838 | 90 | 231 | 2.6 | 2.6 | 0.00 | 0.00 | 0.00 | 61 | 1019.6 |
| 20260831152334 | 89 | 106 | 1.7 | 2.6 | 0.00 | 0.00 | 0.00 | 62 | 1019.9 |
| 20260831151829 | 88 | 101 | 0.9 | 1.7 | 0.00 | 0.00 | 0.00 | 62 | 1019.8 |
| 20260831151328 | 88 | 244 | 2.6 | 2.6 | 0.00 | 0.00 | 0.00 | 62 | 1019.8 |
| 20260831150823 | 88 | 357 | 0.9 | 1.7 | 0.00 | 0.00 | 0.00 | 63 | 1019.8 |
| 20260831150319 | 89 | 334 | 2.6 | 2.6 | 0.00 | 0.00 | 0.00 | 63 | 1019.7 |
| 20260831145818 | 88 | 71 | 0.9 | 1.7 | 0.00 | 0.00 | 0.00 | 64 | 1019.7 |
| 20260831145315 | 88 | 122 | 2.6 | 2.6 | 0.00 | 0.00 | 0.00 | 63 | 1019.6 |
| 20260831144810 | 88 | 270 | 0.9 | 1.7 | 0.00 | 0.00 | 0.00 | 64 | 1019.9 |
| 20260831144306 | 87 | 302 | 1.7 | 2.6 | 0.00 | 0.00 | 0.00 | 65 | 1019.7 |
| 20260831143805 | 87 | 126 | 1.7 | 2.6 | 0.00 | 0.00 | 0.00 | 66 | 1019.7 |
| 20260831143301 | 87 | 66 | 0.0 | 0.9 | 0.00 | 0.00 | 0.00 | 67 | 1019.7 |
| 20260831142756 | 86 | 28 | 0.0 | 0.9 | 0.00 | 0.00 | 0.00 | 67 | 1019.6 |
| 20260831142251 | 86 | 256 | 2.6 | 2.6 | 0.00 | 0.00 | 0.00 | 68 | 1019.8 |
| 20260831141751 | 85 | 37 | 1.7 | 1.7 | 0.00 | 0.00 | 0.00 | 69 | 1019.5 |
| 20260831141251 | 85 | 144 | 2.6 | 2.6 | 0.00 | 0.00 | 0.00 | 69 | 1019.6 |
| 20260831140747 | 85 | 289 | 0.9 | 2.6 | 0.00 | 0.00 | 0.00 | 69 | 1019.4 |
| 20260831140246 | 84 | 138 | 1.7 | 1.7 | 0.00 | 0.00 | 0.00 | 70 | 1019.4 |
| 20260831135743 | 84 | 54 | 0.0 | 0.0 | 0.00 | 0.00 | 0.00 | 72 | 1019.4 |
| 20260831135240 | 83 | 60 | 0.0 | 0.0 | 0.00 | 0.00 | 0.00 | 73 | 1019.5 |
| 20260831134735 | 83 | 14 | 3.5 | 3.5 | 0.00 | 0.00 | 0.00 | 72 | 1019.3 |
| 20260831134232 | 83 | 314 | 1.7 | 1.7 | 0.00 | 0.00 | 0.00 | 72 | 1019.3 |
| 20260831133730 | 83 | 60 | 0.0 | 0.0 | 0.00 | 0.00 | 0.00 | 74 | 1019.2 |
| 20260831133225 | 82 | 45 | 0.0 | 0.0 | 0.00 | 0.00 | 0.00 | 75 | 1019.1 |
| 20260831132720 | 81 | 263 | 2.6 | 2.6 | 0.00 | 0.00 | 0.00 | 77 | 1019.2 |
| 20260831132215 | 80 | 62 | 0.9 | 0.9 | 0.00 | 0.00 | 0.00 | 78 | 1019.3 |
| 20260831131715 | 81 | 240 | 1.7 | 1.7 | 0.00 | 0.00 | 0.00 | 77 | 1019.4 |
| 20260831131212 | 81 | 185 | 0.9 | 1.7 | 0.00 | 0.00 | 0.00 | 78 | 1019.3 |
| 20260831130712 | 80 | 179 | 0.9 | 1.7 | 0.00 | 0.00 | 0.00 | 79 | 1019.1 |
| 20260831130208 | 80 | 61 | 1.7 | 2.6 | 0.00 | 0.00 | 0.00 | 81 | 1019.1 |
| 20260831125706 | 79 | 54 | 0.0 | 0.9 | 0.00 | 0.00 | 0.00 | 82 | 1019.1 |
| 20260831125202 | 79 | 50 | 0.0 | 0.9 | 0.00 | 0.00 | 0.00 | 83 | 1018.8 |
| 20260831124657 | 78 | 199 | 0.9 | 1.7 | 0.00 | 0.00 | 0.00 | 84 | 1018.8 |
| 20260831124153 | 77 | 73 | 0.0 | 0.0 | 0.00 | 0.00 | 0.00 | 85 | 1018.9 |
| 20260831123653 | 77 | 62 | 0.0 | 0.0 | 0.00 | 0.00 | 0.00 | 88 | 1018.8 |
| 20260831123152 | 75 | 62 | 0.0 | 0.0 | 0.00 | 0.00 | 0.00 | 90 | 1018.8 |
| 20260831122651 | 74 | 62 | 0.0 | 0.0 | 0.00 | 0.00 | 0.00 | 95 | 1018.7 |
| 20260831122148 | 73 | 62 | 0.0 | 0.0 | 0.00 | 0.00 | 0.00 | 95 | 1018.4 |
| 20260831121647 | 73 | 63 | 0.0 | 0.0 | 0.00 | 0.00 | 0.00 | 95 | 1018.7 |
| 20260831121143 | 72 | 63 | 0.0 | 0.0 | 0.00 | 0.00 | 0.00 | 95 | 1018.5 |
| 20260831120639 | 72 | 63 | 0.0 | 0.0 | 0.00 | 0.00 | 0.00 | 95 | 1018.5 |
| 20260831120133 | 72 | 63 | 0.0 | 0.0 | 0.00 | 0.00 | 0.00 | 95 | 1018.4 |
| 20260831115629 | 72 | 63 | 0.0 | 0.0 | 0.00 | 0.00 | 0.00 | 95 | 1018.5 |
| 20260831115124 | 72 | 63 | 0.0 | 0.0 | 0.00 | 0.00 | 0.00 | 95 | 1018.4 |
| 20260831114624 | 72 | 63 | 0.0 | 0.0 | 0.00 | 0.00 | 0.00 | 95 | 1018.3 |
| 20260831114119 | 72 | 63 | 0.0 | 0.0 | 0.00 | 0.00 | 0.00 | 95 | 1018.2 |
| 20260831113618 | 72 | 63 | 0.0 | 0.0 | 0.00 | 0.00 | 0.00 | 95 | 1018.2 |
| 20260831113113 | 72 | 63 | 0.0 | 0.0 | 0.00 | 0.00 | 0.00 | 95 | 1018.2 |
| 20260831112612 | 72 | 63 | 0.0 | 0.0 | 0.00 | 0.00 | 0.00 | 95 | 1018.2 |
| 20260831112108 | 72 | 63 | 0.0 | 0.0 | 0.00 | 0.00 | 0.00 | 95 | 1018.4 |
| 20260831111604 | 72 | 63 | 0.0 | 0.0 | 0.00 | 0.00 | 0.00 | 94 | 1018.2 |
| 20260831111059 | 72 | 63 | 0.0 | 0.0 | 0.00 | 0.00 | 0.00 | 94 | 1018.2 |
| 20260831110554 | 72 | 63 | 0.0 | 0.0 | 0.00 | 0.00 | 0.00 | 94 | 1018.1 |
| 20260831110049 | 73 | 63 | 0.0 | 0.0 | 0.00 | 0.00 | 0.00 | 93 | 1018.2 |
| 20260831105549 | 73 | 63 | 0.0 | 0.0 | 0.00 | 0.00 | 0.00 | 93 | 1018.0 |
| 20260831105043 | 73 | 63 | 0.0 | 0.0 | 0.00 | 0.00 | 0.00 | 93 | 1018.3 |
| 20260831104540 | 73 | 63 | 0.0 | 0.0 | 0.00 | 0.00 | 0.00 | 93 | 1017.9 |
| 20260831104036 | 73 | 63 | 0.0 | 0.0 | 0.00 | 0.00 | 0.00 | 93 | 1018.0 |
| 20260831103531 | 73 | 63 | 0.0 | 0.0 | 0.00 | 0.00 | 0.00 | 93 | 1017.9 |
| 20260831103027 | 73 | 63 | 0.0 | 0.0 | 0.00 | 0.00 | 0.00 | 93 | 1017.7 |
| 20260831102526 | 73 | 63 | 0.0 | 0.0 | 0.00 | 0.00 | 0.00 | 93 | 1018.0 |
| 20260831102021 | 73 | 63 | 0.0 | 0.0 | 0.00 | 0.00 | 0.00 | 93 | 1017.7 |
| 20260831101517 | 73 | 63 | 0.0 | 0.0 | 0.00 | 0.00 | 0.00 | 93 | 1017.7 |
| 20260831101013 | 73 | 63 | 0.0 | 0.0 | 0.00 | 0.00 | 0.00 | 93 | 1017.8 |
| 20260831100509 | 73 | 63 | 0.0 | 0.0 | 0.00 | 0.00 | 0.00 | 93 | 1017.8 |
| 20260831100004 | 73 | 63 | 0.0 | 0.0 | 0.00 | 0.00 | 0.00 | 93 | 1017.6 |
| 20260831095503 | 73 | 63 | 0.0 | 0.0 | 0.00 | 0.00 | 0.00 | 93 | 1017.7 |
| 20260831094957 | 73 | 63 | 0.0 | 0.0 | 0.00 | 0.00 | 0.00 | 93 | 1017.6 |
| 20260831094454 | 73 | 63 | 0.0 | 0.0 | 0.00 | 0.00 | 0.00 | 92 | 1017.5 |
| 20260831093949 | 73 | 63 | 0.0 | 0.0 | 0.00 | 0.00 | 0.00 | 92 | 1017.4 |
| 20260831093444 | 73 | 63 | 0.0 | 0.0 | 0.00 | 0.00 | 0.00 | 92 | 1017.4 |
| 20260831092941 | 73 | 63 | 0.0 | 0.0 | 0.00 | 0.00 | 0.00 | 92 | 1017.4 |
| 20260831092436 | 73 | 63 | 0.0 | 0.0 | 0.00 | 0.00 | 0.00 | 92 | 1017.4 |
| 20260831091931 | 73 | 63 | 0.0 | 0.0 | 0.00 | 0.00 | 0.00 | 92 | 1017.4 |
| 20260831091427 | 73 | 63 | 0.0 | 0.0 | 0.00 | 0.00 | 0.00 | 92 | 1017.3 |
| 20260831090922 | 73 | 63 | 0.0 | 0.0 | 0.00 | 0.00 | 0.00 | 92 | 1017.4 |
| 20260831090418 | 74 | 62 | 0.0 | 0.0 | 0.00 | 0.00 | 0.00 | 92 | 1017.2 |
| 20260831085914 | 74 | 62 | 0.0 | 0.0 | 0.00 | 0.00 | 0.00 | 91 | 1017.1 |
| 20260831085408 | 74 | 62 | 0.0 | 0.0 | 0.00 | 0.00 | 0.00 | 91 | 1017.1 |
| 20260831084908 | 74 | 62 | 0.0 | 0.0 | 0.00 | 0.00 | 0.00 | 91 | 1017.1 |
| 20260831084404 | 74 | 62 | 0.0 | 0.0 | 0.00 | 0.00 | 0.00 | 91 | 1016.9 |
| 20260831083900 | 74 | 62 | 0.0 | 0.0 | 0.00 | 0.00 | 0.00 | 91 | 1017.2 |
| 20260831083355 | 74 | 62 | 0.0 | 0.0 | 0.00 | 0.00 | 0.00 | 91 | 1017.2 |
| 20260831082854 | 74 | 62 | 0.0 | 0.0 | 0.00 | 0.00 | 0.00 | 91 | 1017.0 |
| 20260831082349 | 74 | 62 | 0.0 | 0.0 | 0.00 | 0.00 | 0.00 | 90 | 1017.0 |
| 20260831081845 | 74 | 62 | 0.0 | 0.0 | 0.00 | 0.00 | 0.00 | 91 | 1016.9 |
| 20260831081340 | 74 | 62 | 0.0 | 0.0 | 0.00 | 0.00 | 0.00 | 90 | 1017.0 |
| 20260831080836 | 74 | 62 | 0.0 | 0.0 | 0.00 | 0.00 | 0.00 | 90 | 1016.7 |
| 20260831080336 | 74 | 62 | 0.0 | 0.0 | 0.00 | 0.00 | 0.00 | 90 | 1016.8 |
| 20260831075832 | 75 | 62 | 0.0 | 0.0 | 0.00 | 0.00 | 0.00 | 90 | 1016.8 |
| 20260831075326 | 75 | 62 | 0.0 | 0.0 | 0.00 | 0.00 | 0.00 | 90 | 1017.1 |
| 20260831074821 | 75 | 62 | 0.0 | 0.0 | 0.00 | 0.00 | 0.00 | 90 | 1017.2 |
| 20260831074320 | 75 | 62 | 0.0 | 0.0 | 0.00 | 0.00 | 0.00 | 90 | 1017.0 |
| 20260831073816 | 75 | 62 | 0.0 | 0.0 | 0.00 | 0.00 | 0.00 | 90 | 1016.9 |
| 20260831073315 | 75 | 62 | 0.0 | 0.0 | 0.00 | 0.00 | 0.00 | 90 | 1016.9 |
| 20260831072811 | 75 | 62 | 0.0 | 0.0 | 0.00 | 0.00 | 0.00 | 89 | 1017.2 |
| 20260831072307 | 75 | 62 | 0.0 | 0.0 | 0.00 | 0.00 | 0.00 | 89 | 1017.2 |
| 20260831071802 | 75 | 62 | 0.0 | 0.0 | 0.00 | 0.00 | 0.00 | 89 | 1017.0 |
| 20260831071256 | 75 | 61 | 0.0 | 0.0 | 0.00 | 0.00 | 0.00 | 90 | 1017.2 |
| 20260831070756 | 75 | 62 | 0.0 | 0.0 | 0.00 | 0.00 | 0.00 | 90 | 1017.1 |
| 20260831070255 | 75 | 61 | 0.0 | 0.0 | 0.00 | 0.00 | 0.00 | 90 | 1017.0 |
| 20260831065754 | 75 | 62 | 0.0 | 0.0 | 0.00 | 0.00 | 0.00 | 90 | 1017.1 |
| 20260831065252 | 75 | 62 | 0.0 | 0.0 | 0.00 | 0.00 | 0.00 | 90 | 1017.2 |
| 20260831064748 | 75 | 62 | 0.0 | 0.0 | 0.00 | 0.00 | 0.00 | 90 | 1017.3 |
| 20260831064243 | 75 | 61 | 0.0 | 0.0 | 0.00 | 0.00 | 0.00 | 90 | 1017.1 |
| 20260831063739 | 75 | 61 | 0.0 | 0.0 | 0.00 | 0.00 | 0.00 | 90 | 1017.2 |
| 20260831063234 | 75 | 62 | 0.0 | 0.0 | 0.00 | 0.00 | 0.00 | 89 | 1017.2 |
| 20260831062733 | 75 | 61 | 0.0 | 0.0 | 0.00 | 0.00 | 0.00 | 89 | 1017.0 |
| 20260831062229 | 76 | 61 | 0.0 | 0.0 | 0.00 | 0.00 | 0.00 | 88 | 1017.1 |
| 20260831061726 | 76 | 61 | 0.0 | 0.0 | 0.00 | 0.00 | 0.00 | 88 | 1017.1 |
| 20260831061222 | 76 | 62 | 0.0 | 0.0 | 0.00 | 0.00 | 0.00 | 88 | 1017.1 |
| 20260831060719 | 76 | 62 | 0.0 | 0.0 | 0.00 | 0.00 | 0.00 | 87 | 1017.0 |
| 20260831060219 | 76 | 61 | 0.0 | 0.0 | 0.00 | 0.00 | 0.00 | 88 | 1017.3 |
| 20260831055718 | 76 | 61 | 0.0 | 0.0 | 0.00 | 0.00 | 0.00 | 88 | 1017.2 |
| 20260831055213 | 76 | 61 | 0.0 | 0.0 | 0.00 | 0.00 | 0.00 | 88 | 1017.2 |
| 20260831054713 | 76 | 61 | 0.0 | 0.0 | 0.00 | 0.00 | 0.00 | 88 | 1017.3 |
| 20260831054209 | 76 | 61 | 0.0 | 0.0 | 0.00 | 0.00 | 0.00 | 88 | 1017.3 |
| 20260831053708 | 77 | 61 | 0.0 | 0.0 | 0.00 | 0.00 | 0.00 | 87 | 1017.4 |
| 20260831053206 | 77 | 62 | 0.0 | 0.0 | 0.00 | 0.00 | 0.00 | 87 | 1017.2 |
| 20260831052706 | 77 | 61 | 0.0 | 0.0 | 0.00 | 0.00 | 0.00 | 87 | 1017.3 |
| 20260831052206 | 77 | 61 | 0.0 | 0.0 | 0.00 | 0.00 | 0.00 | 87 | 1017.2 |
| 20260831051704 | 77 | 61 | 0.0 | 0.0 | 0.00 | 0.00 | 0.00 | 87 | 1017.5 |
| 20260831051203 | 77 | 61 | 0.0 | 0.0 | 0.00 | 0.00 | 0.00 | 86 | 1017.3 |
| 20260831050703 | 77 | 62 | 0.0 | 0.0 | 0.00 | 0.00 | 0.00 | 86 | 1017.3 |
| 20260831050202 | 77 | 61 | 0.0 | 0.0 | 0.00 | 0.00 | 0.00 | 86 | 1017.3 |
| 20260831045657 | 77 | 61 | 0.0 | 0.0 | 0.00 | 0.00 | 0.00 | 86 | 1017.3 |
| 20260831045151 | 78 | 62 | 0.0 | 0.0 | 0.00 | 0.00 | 0.00 | 85 | 1017.3 |
| 20260831044646 | 78 | 62 | 0.0 | 0.0 | 0.00 | 0.00 | 0.00 | 85 | 1017.2 |
| 20260831044141 | 78 | 62 | 0.0 | 0.0 | 0.00 | 0.00 | 0.00 | 85 | 1017.3 |
| 20260831043637 | 78 | 62 | 0.0 | 0.0 | 0.00 | 0.00 | 0.00 | 84 | 1017.3 |
| 20260831043132 | 78 | 68 | 0.0 | 0.0 | 0.00 | 0.00 | 0.00 | 84 | 1017.4 |
| 20260831042631 | 79 | 50 | 0.0 | 0.0 | 0.00 | 0.00 | 0.00 | 84 | 1017.3 |
| 20260831042126 | 79 | 50 | 0.0 | 0.0 | 0.00 | 0.00 | 0.00 | 84 | 1017.3 |
| 20260831041621 | 79 | 55 | 0.0 | 0.0 | 0.00 | 0.00 | 0.00 | 84 | 1017.4 |
| 20260831041121 | 79 | 63 | 0.0 | 0.0 | 0.00 | 0.00 | 0.00 | 84 | 1017.3 |
| 20260831040616 | 79 | 63 | 0.0 | 0.0 | 0.00 | 0.00 | 0.00 | 84 | 1017.2 |
| 20260831040115 | 79 | 62 | 0.0 | 0.0 | 0.00 | 0.00 | 0.00 | 83 | 1017.3 |
| 20260831035614 | 79 | 62 | 0.0 | 0.0 | 0.00 | 0.00 | 0.00 | 83 | 1017.2 |
| 20260831035109 | 79 | 67 | 0.0 | 0.0 | 0.00 | 0.00 | 0.00 | 83 | 1017.2 |
| 20260831034608 | 79 | 61 | 0.0 | 0.0 | 0.00 | 0.00 | 0.00 | 83 | 1017.3 |
| 20260831034103 | 79 | 61 | 0.0 | 0.0 | 0.00 | 0.00 | 0.00 | 83 | 1017.0 |
| 20260831033558 | 79 | 61 | 0.0 | 0.0 | 0.00 | 0.00 | 0.00 | 83 | 1017.0 |
| 20260831033048 | 80 | 62 | 0.0 | 0.0 | 0.00 | 0.00 | 0.00 | 82 | 1017.2 |
| 20260831032547 | 80 | 62 | 0.0 | 0.0 | 0.00 | 0.00 | 0.00 | 82 | 1017.1 |
| 20260831032043 | 80 | 61 | 0.0 | 0.0 | 0.00 | 0.00 | 0.00 | 81 | 1017.1 |
| 20260831031542 | 80 | 61 | 0.0 | 0.0 | 0.00 | 0.00 | 0.00 | 81 | 1017.3 |
| 20260831031042 | 80 | 62 | 0.0 | 0.0 | 0.00 | 0.00 | 0.00 | 81 | 1017.0 |
| 20260831030541 | 80 | 63 | 0.0 | 0.0 | 0.00 | 0.00 | 0.00 | 80 | 1017.1 |
| 20260831030040 | 81 | 56 | 0.0 | 0.0 | 0.00 | 0.00 | 0.00 | 80 | 1017.0 |
| 20260831025538 | 81 | 56 | 0.0 | 0.0 | 0.00 | 0.00 | 0.00 | 79 | 1017.0 |
| 20260831025034 | 81 | 67 | 0.0 | 0.0 | 0.00 | 0.00 | 0.00 | 79 | 1017.0 |
| 20260831024530 | 82 | 108 | 0.9 | 1.7 | 0.00 | 0.00 | 0.00 | 78 | 1017.1 |
| 20260831024029 | 82 | 42 | 0.0 | 0.0 | 0.00 | 0.00 | 0.00 | 78 | 1017.0 |
| 20260831023528 | 82 | 49 | 0.0 | 0.0 | 0.00 | 0.00 | 0.00 | 78 | 1016.9 |
| 20260831023027 | 82 | 56 | 0.0 | 0.0 | 0.00 | 0.00 | 0.00 | 77 | 1017.0 |
| 20260831022527 | 82 | 53 | 0.0 | 0.9 | 0.00 | 0.00 | 0.00 | 77 | 1017.1 |
| 20260831022023 | 82 | 53 | 0.0 | 0.0 | 0.00 | 0.00 | 0.00 | 77 | 1017.0 |
| 20260831021521 | 82 | 67 | 0.0 | 0.0 | 0.00 | 0.00 | 0.00 | 76 | 1016.9 |
| 20260831021018 | 82 | 58 | 0.0 | 0.0 | 0.00 | 0.00 | 0.00 | 77 | 1016.8 |
| 20260831020513 | 82 | 68 | 0.0 | 0.0 | 0.00 | 0.00 | 0.00 | 76 | 1016.9 |
| 20260831020007 | 82 | 70 | 0.0 | 0.9 | 0.00 | 0.00 | 0.00 | 76 | 1016.9 |
| 20260831015503 | 82 | 71 | 0.0 | 0.0 | 0.00 | 0.00 | 0.00 | 76 | 1016.7 |
| 20260831014958 | 83 | 70 | 0.0 | 0.0 | 0.00 | 0.00 | 0.00 | 76 | 1016.6 |
| 20260831014452 | 83 | 71 | 0.0 | 0.0 | 0.00 | 0.00 | 0.00 | 76 | 1016.4 |
| 20260831013948 | 83 | 69 | 0.0 | 0.0 | 0.00 | 0.00 | 0.00 | 75 | 1016.6 |
| 20260831013443 | 82 | 54 | 0.0 | 0.0 | 0.00 | 0.00 | 0.00 | 75 | 1016.4 |
| 20260831012938 | 82 | 57 | 0.0 | 0.0 | 0.00 | 0.00 | 0.00 | 76 | 1016.1 |
| 20260831012433 | 82 | 57 | 0.0 | 0.0 | 0.00 | 0.00 | 0.00 | 75 | 1016.1 |
| 20260831011932 | 83 | 50 | 0.0 | 0.0 | 0.00 | 0.00 | 0.00 | 76 | 1016.1 |
| 20260831011427 | 82 | 73 | 0.9 | 0.9 | 0.00 | 0.00 | 0.00 | 75 | 1016.1 |
| 20260831010923 | 83 | 62 | 0.0 | 0.0 | 0.00 | 0.00 | 0.00 | 75 | 1016.0 |
| 20260831010418 | 83 | 62 | 0.0 | 0.0 | 0.00 | 0.00 | 0.00 | 74 | 1016.0 |
| 20260831005913 | 83 | 62 | 0.0 | 0.0 | 0.00 | 0.00 | 0.00 | 73 | 1015.9 |
| 20260831005409 | 84 | 62 | 0.0 | 0.0 | 0.00 | 0.00 | 0.00 | 72 | 1016.0 |
| 20260831004903 | 84 | 62 | 0.0 | 0.0 | 0.00 | 0.00 | 0.00 | 71 | 1016.1 |
| 20260831004359 | 85 | 62 | 0.0 | 0.0 | 0.00 | 0.00 | 0.00 | 70 | 1016.0 |
| 20260831003855 | 85 | 56 | 0.0 | 0.0 | 0.00 | 0.00 | 0.00 | 70 | 1015.9 |
| 20260831003351 | 85 | 61 | 0.0 | 0.0 | 0.00 | 0.00 | 0.00 | 69 | 1015.9 |
| 20260831002850 | 85 | 69 | 0.0 | 0.0 | 0.00 | 0.00 | 0.00 | 68 | 1016.1 |
| 20260831002349 | 86 | 60 | 0.0 | 0.0 | 0.00 | 0.00 | 0.00 | 67 | 1016.1 |
| 20260831001845 | 86 | 61 | 0.0 | 0.0 | 0.00 | 0.00 | 0.00 | 66 | 1016.1 |
| 20260831001345 | 86 | 69 | 0.0 | 0.0 | 0.00 | 0.00 | 0.00 | 65 | 1016.1 |
| 20260831000843 | 86 | 67 | 0.0 | 0.9 | 0.00 | 0.00 | 0.00 | 65 | 1016.1 |
| 20260831000340 | 86 | 60 | 0.0 | 0.0 | 0.00 | 0.00 | 0.00 | 64 | 1016.3 |
| 20260830235836 | 87 | 61 | 0.0 | 0.0 | 0.00 | 0.00 | 0.00 | 62 | 1016.4 |
| 20260830235331 | 87 | 54 | 0.0 | 0.0 | 0.00 | 0.00 | 0.00 | 63 | 1016.0 |
| 20260830234827 | 88 | 54 | 0.0 | 0.0 | 0.00 | 0.00 | 0.00 | 63 | 1016.1 |
| 20260830234322 | 88 | 54 | 0.0 | 0.0 | 0.00 | 0.00 | 0.00 | 61 | 1015.9 |
| 20260830233818 | 89 | 52 | 0.0 | 0.0 | 0.00 | 0.00 | 0.00 | 59 | 1015.8 |
| 20260830233313 | 90 | 67 | 0.0 | 0.0 | 0.00 | 0.00 | 0.00 | 62 | 1015.9 |
| 20260830232808 | 91 | 60 | 0.0 | 0.0 | 0.00 | 0.00 | 0.00 | 57 | 1016.0 |
| 20260830232306 | 91 | 47 | 0.0 | 0.0 | 0.00 | 0.00 | 0.00 | 56 | 1015.9 |